This demonstration page uses our WeatherBlox Daily Observations layout. Learn more.

Left ArrowRight Arrow

38.83388, -104.82136

Hourly Observations for March 15, 2018

Temp ( °F °C ) Dew Point ( °F °C ) Humidity (%) Winds ( mph kmh ) Pressure ( in mb ) Visibility ( mi km ) Precip ( " mm )
12:58 am 00:58 Clear 49 9.3 19 -7.5 30 30 SSE 3 6 29.32 993 10 16 0.00 0.00
1:58 am 01:58 Clear 47 8.4 20 -6.7 34 34 SSW 5 7 29.29 992 10 16 0.00 0.00
2:58 am 02:58 Clear 47 8.4 20 -6.8 34 34 Calm 29.26 991 10 16 0.00 0.00
3:58 am 03:58 Clear 48 8.8 20 -6.5 34 34 Calm 29.24 990 10 16 0.00 0.00
4:58 am 04:58 Clear 51 10.3 19 -7.4 28 28 SSE 13 20 29.21 989 10 16 0.00 0.00
5:58 am 05:58 Clear 47 8.4 20 -6.7 34 34 WSW 3 6 29.22 989 10 16 0.00 0.00
6:58 am 06:58 Clear 48 8.7 20 -6.9 33 33 Calm 29.24 990 10 16 0.00 0.00
7:58 am 07:58 Sunny 50 9.9 17 -8.3 27 27 WNW 7 11 29.24 990 10 16 0.00 0.00
8:58 am 08:58 Sunny 52 11.2 19 -7.3 27 27 NNE 5 7 29.24 990 10 16 0.00 0.00
9:58 am 09:58 Sunny 55 12.8 19 -7 25 25 ESE 7 11 29.21 989 10 16 0.00 0.00
10:11 am 10:11 Sunny 57 14 19 -7 23 23 S 14 22 29.20 989 10 16 0.00 0.00
10:48 am 10:48 Partly Cloudy 57 14 19 -7 23 23 SSE 15 24 29.20 989 10 16 0.00 0.00
10:58 am 10:58 Mostly Cloudy 56 13.4 19 -7.2 23 23 S 8 13 29.22 989 10 16 0.00 0.00
11:58 am 11:58 Mostly Cloudy 57 13.9 19 -7.5 22 22 E 5 7 29.18 988 10 16 0.00 0.00
3:58 pm 15:58 Mostly Cloudy 56 13.1 15 -9.2 20 20 Calm 29.04 984 10 16 0.00 0.00
4:50 pm 16:50 Mostly Cloudy with Light Rain 54 12 18 -8 24 24 W 14 22 29.04 984 10 16 0.00 0.00
4:58 pm 16:58 Mostly Cloudy with Light Rain 51 10.7 23 -5 33 33 W 16 26 29.05 984 10 16 0.00 0.00
5:06 pm 17:06 Mostly Cloudy with Light Rain 50 10 27 -3 40 40 WSW 12 19 29.09 985 10 16 0.00 0.00
5:11 pm 17:11 Mostly Cloudy with Light Rain 48 9 27 -3 43 43 Calm 29.08 985 10 16 0.00 0.00
5:26 pm 17:26 Mostly Cloudy 50 10 28 -2 43 43 Calm 29.06 984 10 16 0.00 0.00
5:58 pm 17:58 Mostly Cloudy 50 10.1 23 -5 34 34 Calm 29.05 984 10 16 0.00 0.00
6:58 pm 18:58 Mostly Cloudy 51 10.3 16 -9 25 25 N 6 9 29.03 983 10 16 0.00 0.00
7:58 pm 19:58 Cloudy 50 10.1 11 -11.5 21 21 Calm 29.02 983 10 16 0.00 0.00
8:33 pm 20:33 Cloudy 48 9 23 -5 37 37 NNW 14 22 29.05 984 10 16 0.00 0.00
8:58 pm 20:58 Mostly Cloudy 44 6.4 30 -1.1 59 59 NW 18 30 29.07 985 10 16 0.00 0.00
9:58 pm 21:58 Cloudy 42 5.5 31 -0.3 67 67 NNW 12 19 29.07 984 10 16 0.00 0.00
10:33 pm 22:33 Mostly Cloudy 39 4 32 0 75 75 NW 13 20 29.10 985 10 16 0.00 0.00
10:38 pm 22:38 Mostly Cloudy 39 4 32 0 75 75 NW 14 22 29.10 985 10 16 0.00 0.00
10:58 pm 22:58 Mostly Cloudy 38 3.5 32 -0.1 78 78 NNW 13 20 29.10 985 10 16 0.00 0.00
11:13 pm 23:13 Mostly Cloudy 37 3 32 0 81 81 NNW 12 19 29.10 985 10 16 0.00 0.00
11:58 pm 23:58 Mostly Cloudy 37 2.6 32 -0.2 82 82 NW 6 9 29.11 986 10 16 0.00 0.00

Powered by AerisWeather